TimeCST,TemperatureF,Dew PointF,Humidity,Sea Level PressureIn,VisibilityMPH,Wind Direction,Wind SpeedMPH,Gust SpeedMPH,PrecipitationIn,Events,Conditions,WindDirDegrees,DateUTC
12:38 AM,50.0,48.2,94,30.20,8.0,Calm,Calm,-,N/A,,Overcast,0,2013-03-09 06:38:00
12:48 AM,51.8,50.0,94,30.20,6.0,Calm,Calm,-,N/A,,Overcast,0,2013-03-09 06:48:00
12:58 AM,51.3,49.3,93,30.21,5.0,Calm,Calm,-,N/A,,Mostly Cloudy,0,2013-03-09 06:58:00
1:03 AM,51.8,50.0,94,30.20,5.0,Calm,Calm,-,N/A,,Scattered Clouds,0,2013-03-09 07:03:00
1:18 AM,50.0,50.0,100,30.18,5.0,Calm,Calm,-,N/A,,Scattered Clouds,0,2013-03-09 07:18:00
1:28 AM,50.0,48.2,94,30.18,5.0,Variable,2.3,-,N/A,,Mostly Cloudy,0,2013-03-09 07:28:00
1:33 AM,50.0,48.2,94,30.17,7.0,ENE,3.5,-,N/A,,Mostly Cloudy,70,2013-03-09 07:33:00
1:43 AM,50.0,48.2,94,30.16,10.0,East,2.3,-,N/A,,Overcast,90,2013-03-09 07:43:00
1:58 AM,50.4,48.6,94,30.16,10.0,Calm,Calm,-,N/A,,Overcast,0,2013-03-09 07:58:00
2:58 AM,52.2,49.3,90,30.13,10.0,East,4.6,-,N/A,,Scattered Clouds,90,2013-03-09 08:58:00
3:58 AM,50.9,46.9,86,30.14,10.0,NE,3.5,-,N/A,,Overcast,40,2013-03-09 09:58:00
4:58 AM,50.5,46.4,86,30.15,10.0,NNE,3.5,-,N/A,,Overcast,30,2013-03-09 10:58:00
5:58 AM,49.6,45.9,87,30.16,10.0,ENE,4.6,-,N/A,,Overcast,60,2013-03-09 11:58:00
6:58 AM,51.3,45.0,79,30.18,10.0,North,5.8,-,N/A,,Overcast,350,2013-03-09 12:58:00
7:58 AM,53.8,45.1,73,30.20,10.0,East,6.9,-,N/A,,Mostly Cloudy,80,2013-03-09 13:58:00
8:58 AM,59.4,46.9,63,30.20,10.0,East,6.9,-,N/A,,Partly Cloudy,90,2013-03-09 14:58:00
9:58 AM,64.8,46.4,51,30.21,10.0,SE,8.1,-,N/A,,Mostly Cloudy,130,2013-03-09 15:58:00
10:58 AM,66.0,52.9,63,30.21,10.0,SE,10.4,-,N/A,,Overcast,130,2013-03-09 16:58:00
11:58 AM,66.9,54.5,64,30.21,10.0,SE,13.8,-,N/A,,Clear,130,2013-03-09 17:58:00
12:58 PM,67.5,54.3,63,30.17,10.0,SE,12.7,20.7,N/A,,Partly Cloudy,140,2013-03-09 18:58:00
1:58 PM,65.5,53.2,65,30.15,10.0,ESE,10.4,-,N/A,,Partly Cloudy,120,2013-03-09 19:58:00
2:58 PM,65.5,54.1,67,30.13,10.0,ESE,8.1,18.4,N/A,,Partly Cloudy,110,2013-03-09 20:58:00
3:58 PM,64.6,56.1,74,30.12,10.0,ESE,15.0,-,N/A,,Clear,110,2013-03-09 21:58:00
4:58 PM,64.6,57.7,78,30.11,10.0,ESE,13.8,25.3,N/A,,Overcast,110,2013-03-09 22:58:00
5:58 PM,63.7,58.1,82,30.09,10.0,ESE,15.0,23.0,N/A,,Scattered Clouds,120,2013-03-09 23:58:00
6:58 PM,62.8,58.8,87,30.08,10.0,ESE,15.0,23.0,N/A,,Mostly Cloudy,110,2013-03-10 00:58:00
7:58 PM,62.6,59.0,88,30.08,10.0,ESE,11.5,23.0,N/A,,Scattered Clouds,120,2013-03-10 01:58:00
8:58 PM,62.2,59.0,89,30.07,10.0,ESE,16.1,25.3,N/A,,Scattered Clouds,120,2013-03-10 02:58:00
9:58 PM,62.8,59.5,89,30.06,10.0,SE,12.7,21.9,N/A,,Scattered Clouds,130,2013-03-10 03:58:00
10:58 PM,62.6,59.4,89,30.03,10.0,SE,9.2,19.6,N/A,,Scattered Clouds,130,2013-03-10 04:58:00
11:58 PM,63.0,59.4,88,30.02,10.0,ESE,12.7,20.7,N/A,,Mostly Cloudy,120,2013-03-10 05:58:00